Weather observations for the past three days for
Ames, Ames Municipal Airport
Imperial (Metric)
Date Time (cdt) Wind (mph) Vis. (mi.) Weather Sky Cond. Temperature (ºF) Relative Humidity Wind Chill (°F) Heat Index (°F) Pressure Precipitation (in)
Air Dwpt 6 hour altimeter (in) sea level (mb) 1 hr 3 hr 6 hr
Max. Min.
13 00:53 S 6 10.00 Fair CLR 71.1 62.1 86 71.1 73% 29.76 1006.5
12 23:53 S 8 10.00 Fair CLR 75.9 62.1 62% 78 29.77 1006.7
12 22:53 S 12 10.00 A Few Clouds FEW090 80.1 61 52% 81 29.76 1006.6
12 21:53 S 12 10.00 Fair CLR 81 61 51% 82 29.77 1006.8
12 20:53 S 13 10.00 Fair CLR 82 60.1 47% 82 29.75 1006.2
12 19:53 S 15 10.00 Fair CLR 84.9 61 45% 85 29.78 1007.2
12 18:53 S 15 G 23 10.00 Fair CLR 84.9 61 89.1 84 45% 85 29.79 1007.8
12 17:53 S 12 G 24 10.00 Fair CLR 87.1 61 42% 87 29.81 1008.4
12 16:53 S 12 G 22 10.00 Fair CLR 88 63 43% 89 29.83 1009.2
12 15:53 SW 7 10.00 Fair CLR 84.9 62.1 46% 85 29.85 1009.8
12 14:53 S 13 G 28 10.00 Fair CLR 84.9 59 42% 85 29.82 1008.9
12 13:53 S 16 G 30 10.00 Fair CLR 87.1 59 39% 86 29.83 1009.1
12 12:53 SW 24 G 35 10.00 Fair and Breezy CLR 88 60.1 89.1 64.9 39% 88 29.84 1009.5
12 11:53 S 23 G 35 10.00 Fair and Breezy CLR 89.1 61 39% 89 29.84 1009.6
12 10:53 SW 17 G 26 10.00 Fair CLR 87.1 62.1 43% 88 29.86 1010.2
12 09:53 SW 13 10.00 Fair CLR 82.9 62.1 49% 84 29.88 1010.6
12 08:53 SW 13 10.00 Fair CLR 79 62.1 56% 80 29.88 1010.8
12 06:53 SE 5 10.00 A Few Clouds FEW002 64.9 59 64.9 60.1 81% 29.89 1011.1
12 05:53 SE 3 10.00 Mostly Cloudy BKN120 61 55.9 84% 29.9 1011.4
12 04:53 Calm 10.00 A Few Clouds FEW110 61 55 81% 29.9 1011.6
12 03:53 Calm 10.00 Fair CLR 63 55 76% 29.9 1011.6
12 02:53 W 3 10.00 Fair CLR 63 54 73% 29.89 1011.0
12 01:53 W 8 10.00 Fair CLR 63 55 76% 29.88 1010.9
12 00:53 W 7 10.00 Fair CLR 64.9 55 87.1 63 70% 29.88 1010.8
11 23:53 Calm 10.00 Fair CLR 66.9 54 63% 29.87 1010.8
11 22:53 W 3 10.00 Fair CLR 69.1 54 59% 29.87 1010.6
11 21:53 W 7 10.00 Fair CLR 71.1 54 55% 29.86 1010.4
11 20:53 W 6 10.00 Fair CLR 75.9 53.1 45% 78 29.85 1009.8
11 19:53 NW 8 10.00 Fair CLR 84 52 33% 82 29.84 1009.6
11 18:53 W 10 10.00 Fair CLR 87.1 54 89.1 82 32% 85 29.83 1009.3
11 17:53 W 12 10.00 A Few Clouds FEW100 88 54 31% 86 29.83 1009.3
11 16:53 NW 15 G 22 10.00 A Few Clouds FEW090 89.1 55 31% 87 29.84 1009.6
11 15:53 Calm 10.00 Fair CLR 88 55 33% 86 29.85 1009.9
11 14:53 W 14 G 23 10.00 A Few Clouds FEW070 87.1 60.1 40% 87 29.86 1010.2
11 13:53 SW 13 10.00 Fair CLR 84 60.1 44% 84 29.87 1010.6
11 12:53 W 18 G 25 10.00 Fair CLR 82 59 82 57.9 46% 82 29.89 1011.3
11 11:53 SW 18 G 28 10.00 Mostly Cloudy BKN100 75.9 57 52% 78 29.9 1011.7
11 10:53 S 14 9.00 Light Rain OVC110 68 57 68% 29.91 1012.1
11 09:53 S 10 10.00 Overcast BKN080 OVC095 68 52 57% 29.94 1013.1
11 08:53 S 12 10.00 Overcast OVC085 66.9 50 55% 29.94 1013.4
11 07:53 S 10 10.00 Mostly Cloudy BKN090 64.9 48.9 56% 29.95 1013.4
11 06:53 SE 5 10.00 Fair CLR 57.9 48.9 57.9 53.1 72% 29.95 1013.6
11 05:53 SE 6 10.00 Fair CLR 55.9 48 75% 29.94 1013.2
11 04:53 SE 7 10.00 Fair CLR 54 48 80% 29.95 1013.6
11 03:53 SE 6 10.00 Fair CLR 55 48 77% 29.96 1013.9
11 02:53 S 3 10.00 Fair CLR 55.9 46.9 72% 29.98 1014.6
11 01:53 Calm 10.00 Fair CLR 57 48 72% 29.99 1014.8
11 00:53 Calm 10.00 Fair CLR 55.9 48 75 55 75% 29.99 1015.0
10 23:53 Calm 10.00 Fair CLR 55.9 46 70% 29.99 1015.0
10 22:53 SE 3 10.00 Fair CLR 57 45 64% 30 1015.2
10 21:53 S 3 10.00 Fair CLR 60.1 45 58% 29.98 1014.5
10 20:53 S 6 10.00 Fair CLR 63 44.1 50% 29.95 1013.8
10 19:53 SE 6 10.00 Fair CLR 72 39.9 31% 29.95 1013.6
10 18:53 SE 5 10.00 Fair CLR 75 39.9 77 72 28% 77 29.95 1013.6
10 17:53 Calm 10.00 Fair CLR 75.9 39 26% 77 29.97 1014.3
10 16:53 Calm 10.00 Fair CLR 75.9 41 29% 77 29.99 1015.1
10 15:53 S 5 10.00 Fair CLR 75 42.1 31% 77 30.01 1015.7
10 14:53 Calm 10.00 Fair CLR 75 39.9 28% 77 30.02 1016.1
10 13:53 Calm 10.00 Fair CLR 73 42.1 33% 30.04 1016.6
10 12:53 Vrbl 3 10.00 Fair CLR 72 42.1 72 59 34% 30.05 1017.0
10 11:53 NE 5 10.00 Fair CLR 70 46.9 44% 30.06 1017.3
10 10:53 N 10 10.00 Partly Cloudy SCT040 69.1 50 51% 30.07 1017.5
10 09:53 NE 8 10.00 Fair CLR 66 50 56% 30.08 1017.9
10 08:53 NE 7 10.00 Fair CLR 64.9 51.1 61% 30.09 1018.1
10 07:53 N 5 10.00 Fair CLR 63 52 68% 30.08 1017.8
10 06:53 N 5 10.00 Fair CLR 59 50 60.1 54 72% 30.07 1017.5
10 05:53 N 6 10.00 Fair CLR 55 48 77% 30.06 1017.1
10 04:53 Calm 10.00 Fair CLR 54 46.9 77% 30.04 1016.6
10 03:53 N 6 10.00 Fair CLR 55 46 72% 30.03 1016.2
10 02:53 N 6 10.00 Fair CLR 55.9 46 70% 30.03 1016.1
10 01:53 N 6 10.00 Fair CLR 60.1 45 58% 30.02 1015.7
Date Time (cdt) Wind (mph) Vis. (mi.) Weather Sky Cond. Air Dwpt Max. Min. Relative Humidity Wind Chill (°F) Heat Index (°F) altimeter (in) sea level (mb) 1 hr 3 hr 6 hr
6 hour
Temperature (ºF) Pressure Precipitation (in)